CZ-6A DEB

Satellite information

Favourite Embed

Satellite Type and Status

DEBRISIN ORBIT

Key statistics

Satellite CZ-6A DEB at a glance.

Uptime

1070

Days in orbit

Revolutions

≈ 14.5

Per day

Orbit

SSO

Sun Synchronous Orbit

Inclination

98.6

Latest

Satellite identification and parameters

Extended collection of information and parameters for CZ-6A DEB.

Object identification

Identified? True

Debris? True

Object name: CZ-6A DEB

International designator: 2022-151TB

Object number (NORAD): 54962

Object ID (CCSDS): 54962

Country: PEOPLES REPUBLIC OF CHINA (PRC)

Current information (Y/N): Y

RCS size: SMALL

Orbital parameters

Period: 99.084 minutes

Inclination: 98.6219 deg

SMA: 7092.975 km

Apoapsis: 805.804 km

Periapsis: 623.875 km

RAAN: 341.3805 deg

Eccentricy: 0.01282462

Argument of periapsis: 284.7914 deg

Mean anomaly: 73.9102 deg

Mean motion: 14.53316353 rev/day

Mean motion (dot): 0.00002654 rev/day2

B* drag term: 0.00058509625 1/REarth

Two-line elements (TLE)

Creation date: Oct. 16, 2025, 2:37 a.m.

Reference frame: TEME

Reference center: EARTH

Epoch: Oct. 15, 2025, 9:39 p.m. UTC

TLE line 0: 0 CZ-6A DEB

TLE line 1: 1 54962U 22151TB 25288.90220698 .00002654 00000-0 58510-3 0 9997

TLE line 2: 2 54962 98.6219 341.3805 0128246 284.7914 73.9102 14.53316353154641

Live tracking on map

Real-time ground track for satellite CZ-6A DEB.

In-orbit conjunctions

A list of the most updated potential collisions computed for object CZ-6A DEB.

Target Orbit TCA Probability of collision Miss distance Type
CZ-4B R/B SSO 2025-06-18 05:43:12 0.0009187942 182.0 (m) ROCKET BODY
COSMOS 1992 LEO 2024-11-29 02:33:44 0.0001214428 889.0 (m) PAYLOAD

Associated space launch

Chinese satellite reported for atmospheric/ocean/environmental/spatial parameter research purposes, details TBD.

CZ-6A DEB was lifted into orbit during the mission ‘Long March 6A | Yunhai 3’, on board a Long March 6A space rocket.

The launch took place on Nov. 11, 2022, 10:52 p.m. from Launch Complex 9A.

For more information about the launch, click the button.

Launch to space Long March 6A | Yunhai 3
Long March 6A | Yunhai 3

Agency: N/A

Status: Launch Successful

Launch date: Nov. 11, 2022, 10:52 p.m. UTC

Rocket: Long March 6A

Launch pad: Launch Complex 9A

Location: Taiyuan Satellite Launch Center, People's Republic of China

...

Latest news about this satellite

There are no fresh news available about this satellite. Check back as we update our databases every day.


Newsletter sign-up

Weekly statistics, charts and insights to help you stay on top of the space industry.